Tracking 18851 objects as of 25-Nov-2017
HD Live streaming from Space Station
objects crossing your sky now

COSMOS 807

Track COSMOS 807 now!
10-day predictions
COSMOS 807 is classified as:


NORAD ID: 8744
Int'l Code: 1976-022A
Perigee: 379.5 km
Apogee: 1,204.5 km
Inclination: 82.9 °
Period: 100.6 minutes
Semi major axis: 7162 km
RCS: 2.9772 m2 (large)
Launch date: March 12, 1976
Source: Commonwealth of Independent States (former USSR) (CIS)
Launch site: PLESETSK MISSILE AND SPACE COMPLEX (PKMTR)
aabbcc
Your satellite tracking list
Your tracking list is empty




NASA's NSSDC Master Catalog

Two Line Element Set (TLE):
1  8744U 76022A   17328.63457583 +.00001184 +00000-0 +60942-4 0  9991
2  8744 082.9321 043.6647 0575889 314.2824 154.7583 14.32057201099417
Source of the keplerian elements: AFSPC